FW7906 Weather Reports


time (UTC)temp
C
wind
direction
speed
KPH
gust
KPH
rain 1hr
cm
rain 24hr
cm
rain mn
cm
humidity
%
barometer
mb
20260504081743 6 175 0.0 0.0 0.00 0.00 0.00 84 1016.7
20260504081239 6 182 0.0 0.0 0.00 0.00 0.00 84 1016.6
20260504080735 6 162 0.0 0.0 0.00 0.00 0.00 84 1016.5
20260504080232 6 162 0.0 0.0 0.00 0.00 0.00 84 1016.5
20260504070159 5 174 0.0 0.0 0.00 0.00 0.00 83 1016.9
20260504060120 5 162 0.0 3.2 0.00 0.00 0.00 84 1017.0
20260504050548 4 153 0.0 0.0 0.00 0.00 0.00 86 1017.2
20260504045542 4 156 0.0 0.0 0.00 0.00 0.00 86 1017.3
20260504045037 3 155 0.0 0.0 0.00 0.00 0.00 86 1017.2
20260504044535 3 175 0.0 0.0 0.00 0.00 0.00 86 1017.4
20260504044032 3 177 0.0 0.0 0.00 0.00 0.00 86 1017.3
20260504043529 3 177 0.0 0.0 0.00 0.00 0.00 86 1017.2
20260504043026 3 177 0.0 0.0 0.00 0.00 0.00 86 1017.2
20260504042523 2 164 0.0 0.0 0.00 0.00 0.00 86 1017.2
20260504042020 2 172 0.0 0.0 0.00 0.00 0.00 85 1017.4
20260504041516 2 161 0.0 0.0 0.00 0.00 0.00 85 1017.6
20260504041012 2 161 0.0 0.0 0.00 0.00 0.00 85 1017.4
20260504040510 2 160 0.0 0.0 0.00 0.00 0.00 85 1017.2
20260504040006 2 162 0.0 0.0 0.00 0.00 0.00 84 1017.4
20260504035503 2 164 0.0 0.0 0.00 0.00 0.00 84 1017.3
20260504034959 1 163 0.0 0.0 0.00 0.00 0.00 83 1017.4
20260504034457 2 161 0.0 0.0 0.00 0.00 0.00 83 1017.2
20260504033954 2 161 0.0 0.0 0.00 0.00 0.00 83 1017.3
20260504033452 2 161 0.0 0.0 0.00 0.00 0.00 83 1017.3
20260504032949 2 161 0.0 0.0 0.00 0.00 0.00 83 1017.1
20260504032445 2 159 0.0 0.0 0.00 0.00 0.00 83 1017.1
20260504031942 2 154 0.0 0.0 0.00 0.00 0.00 82 1017.0
20260504031439 2 173 0.0 0.0 0.00 0.00 0.00 82 1017.1
20260504030936 3 151 0.0 0.0 0.00 0.00 0.00 82 1016.9
20260504030433 3 200 0.0 0.0 0.00 0.00 0.00 82 1017.0
20260504025929 3 150 0.0 3.2 0.00 0.00 0.00 81 1017.0
20260504025426 3 161 0.0 0.0 0.00 0.00 0.00 81 1017.1
20260504024923 3 161 0.0 0.0 0.00 0.00 0.00 81 1017.2
20260504024420 3 162 0.0 0.0 0.00 0.00 0.00 81 1017.3
20260504023917 3 161 0.0 0.0 0.00 0.00 0.00 80 1017.1
20260504023413 3 162 0.0 0.0 0.00 0.00 0.00 80 1017.0
20260504022909 3 162 0.0 0.0 0.00 0.00 0.00 79 1017.0
20260504022406 3 162 0.0 0.0 0.00 0.00 0.00 78 1016.9
20260504021902 3 161 0.0 0.0 0.00 0.00 0.00 78 1016.8
20260504021400 3 161 0.0 0.0 0.00 0.00 0.00 77 1016.8
20260504020857 4 156 0.0 0.0 0.00 0.00 0.00 77 1016.7
20260504020353 4 146 0.0 0.0 0.00 0.00 0.00 76 1016.7
20260504015849 4 159 0.0 0.0 0.00 0.00 0.00 75 1016.6
20260504015345 4 159 0.0 0.0 0.00 0.00 0.00 75 1016.4
20260504014842 5 158 0.0 0.0 0.00 0.00 0.00 75 1016.5
20260504014337 5 161 0.0 0.0 0.00 0.00 0.00 73 1016.3
20260504013836 5 161 0.0 0.0 0.00 0.00 0.00 74 1016.2
20260504013333 5 161 0.0 0.0 0.00 0.00 0.00 72 1016.1
20260504012830 5 161 0.0 0.0 0.00 0.00 0.00 71 1016.2
20260504012327 5 161 0.0 0.0 0.00 0.00 0.00 71 1016.0
20260504011825 5 159 0.0 0.0 0.00 0.00 0.00 67 1015.9
20260504011321 6 156 0.0 0.0 0.00 0.00 0.00 68 1015.9
20260504010817 6 164 0.0 0.0 0.00 0.00 0.00 68 1015.9
20260504010313 6 164 0.0 0.0 0.00 0.00 0.00 67 1016.0
20260504005810 7 164 0.0 0.0 0.00 0.00 0.00 66 1016.0
20260504005307 7 168 0.0 0.0 0.00 0.00 0.00 64 1015.9
20260504004804 7 156 0.0 0.0 0.00 0.00 0.00 64 1015.8
20260504004302 8 156 0.0 0.0 0.00 0.00 0.00 60 1015.9
20260504003758 8 150 0.0 3.2 0.00 0.00 0.00 60 1015.8
20260504003255 8 176 0.0 3.2 0.00 0.00 0.00 60 1015.6
20260504002751 8 161 0.0 0.0 0.00 0.00 0.00 56 1015.4
20260504002249 10 161 0.0 0.0 0.00 0.00 0.00 53 1016.0
20260504001746 10 161 0.0 0.0 0.00 0.00 0.00 51 1015.8
20260504001243 11 164 0.0 0.0 0.00 0.00 0.00 49 1015.5
20260504000739 11 158 0.0 0.0 0.00 0.00 0.00 46 1015.5
20260504000236 12 153 0.0 0.0 0.00 0.00 0.00 44 1015.8
20260503235735 13 160 0.0 0.0 0.00 0.00 0.00 41 1015.5
20260503235231 14 179 0.0 0.0 0.00 0.00 0.00 38 1015.9
20260503234730 15 193 0.0 3.2 0.00 0.00 0.00 33 1015.8
20260503234227 15 292 4.8 4.8 0.00 0.00 0.00 31 1015.6
20260503233724 15 190 0.0 4.8 0.00 0.00 0.00 30 1015.5
20260503233219 16 203 1.6 8.0 0.00 0.00 0.00 31 1015.5
20260503232717 16 283 8.0 17.7 0.00 0.00 0.00 29 1015.5
20260503232214 17 181 0.0 4.8 0.00 0.00 0.00 29 1015.5
20260503231713 17 326 4.8 4.8 0.00 0.00 0.00 29 1015.4
20260503231208 17 235 3.2 8.0 0.00 0.00 0.00 28 1015.3
20260503230705 17 319 6.4 11.3 0.00 0.00 0.00 27 1015.5
20260503230202 17 175 4.8 8.0 0.00 0.00 0.00 29 1015.2
20260503225659 17 232 3.2 12.9 0.00 0.00 0.00 29 1015.1
20260503225154 17 292 8.0 12.9 0.00 0.00 0.00 27 1015.3
20260503224651 17 291 8.0 12.9 0.00 0.00 0.00 27 1015.4
20260503224149 17 300 8.0 11.3 0.00 0.00 0.00 26 1015.3
20260503223647 17 257 8.0 11.3 0.00 0.00 0.00 28 1015.0
20260503223143 17 240 1.6 16.1 0.00 0.00 0.00 26 1015.2
20260503222640 17 192 0.0 3.2 0.00 0.00 0.00 28 1015.3
20260503222138 17 242 8.0 11.3 0.00 0.00 0.00 26 1015.3
20260503221636 17 309 4.8 11.3 0.00 0.00 0.00 26 1015.4
20260503221133 17 355 11.3 22.5 0.00 0.00 0.00 26 1015.3
20260503220630 17 341 6.4 12.9 0.00 0.00 0.00 27 1015.5
20260503220126 17 253 8.0 16.1 0.00 0.00 0.00 26 1015.3
20260503215624 17 319 11.3 17.7 0.00 0.00 0.00 25 1015.5
20260503215120 17 291 6.4 11.3 0.00 0.00 0.00 26 1015.5
20260503214619 17 356 25.7 30.6 0.00 0.00 0.00 24 1015.6
20260503214115 17 289 8.0 12.9 0.00 0.00 0.00 26 1015.6
20260503213614 17 269 6.4 8.0 0.00 0.00 0.00 26 1015.5
20260503213110 17 203 11.3 17.7 0.00 0.00 0.00 25 1015.6
20260503212608 17 233 4.8 17.7 0.00 0.00 0.00 26 1015.5
20260503212105 17 295 8.0 12.9 0.00 0.00 0.00 27 1015.4
20260503211602 17 323 4.8 16.1 0.00 0.00 0.00 26 1015.6
20260503211057 17 44 14.5 17.7 0.00 0.00 0.00 27 1015.2
20260503210554 17 288 14.5 20.9 0.00 0.00 0.00 27 1015.4
20260503210050 17 325 8.0 17.7 0.00 0.00 0.00 27 1015.5
20260503205547 17 158 6.4 16.1 0.00 0.00 0.00 28 1015.6
20260503205043 17 312 16.1 17.7 0.00 0.00 0.00 26 1015.6
20260503204540 17 143 4.8 17.7 0.00 0.00 0.00 29 1015.8
20260503204038 17 257 11.3 16.1 0.00 0.00 0.00 26 1015.6
20260503203535 17 211 4.8 8.0 0.00 0.00 0.00 28 1015.6
20260503203032 17 248 4.8 16.1 0.00 0.00 0.00 29 1015.5
20260503202530 17 273 9.7 16.1 0.00 0.00 0.00 28 1015.4
20260503202027 17 270 8.0 16.1 0.00 0.00 0.00 26 1015.8
20260503201525 17 233 6.4 8.0 0.00 0.00 0.00 30 1016.2
20260503201022 17 260 4.8 16.1 0.00 0.00 0.00 27 1016.1
20260503200518 17 333 14.5 17.7 0.00 0.00 0.00 28 1016.1
20260503200015 17 267 8.0 17.7 0.00 0.00 0.00 30 1016.1
20260503195513 17 292 8.0 12.9 0.00 0.00 0.00 27 1016.1
20260503195009 17 323 6.4 22.5 0.00 0.00 0.00 27 1016.2
20260503194507 17 221 3.2 16.1 0.00 0.00 0.00 30 1016.3
20260503194006 17 313 8.0 17.7 0.00 0.00 0.00 30 1016.5
20260503193503 17 28 8.0 12.9 0.00 0.00 0.00 28 1016.6
20260503192958 16 210 6.4 22.5 0.00 0.00 0.00 27 1016.8
20260503192454 16 335 17.7 25.7 0.00 0.00 0.00 27 1016.7
20260503191950 17 288 11.3 16.1 0.00 0.00 0.00 30 1016.8
20260503191448 16 89 0.0 8.0 0.00 0.00 0.00 37 1016.9
20260503190944 16 237 8.0 12.9 0.00 0.00 0.00 30 1016.9
20260503190442 16 299 11.3 16.1 0.00 0.00 0.00 30 1016.9
20260503185938 16 225 8.0 11.3 0.00 0.00 0.00 30 1017.0
20260503185435 16 324 9.7 12.9 0.00 0.00 0.00 29 1017.2
20260503184934 16 256 8.0 16.1 0.00 0.00 0.00 34 1016.9
20260503184431 16 319 9.7 12.9 0.00 0.00 0.00 30 1017.4
20260503183927 16 336 4.8 11.3 0.00 0.00 0.00 32 1017.3
20260503183424 15 240 11.3 20.9 0.00 0.00 0.00 32 1017.3
20260503182921 15 345 12.9 22.5 0.00 0.00 0.00 30 1017.4
20260503182420 15 318 9.7 20.9 0.00 0.00 0.00 29 1017.2
20260503181917 15 284 14.5 20.9 0.00 0.00 0.00 30 1017.4
20260503181414 16 188 14.5 17.7 0.00 0.00 0.00 31 1017.4
20260503180910 15 0 6.4 16.1 0.00 0.00 0.00 32 1017.5
20260503180408 15 301 12.9 17.7 0.00 0.00 0.00 32 1017.6
20260503175904 15 204 12.9 22.5 0.00 0.00 0.00 31 1017.6
20260503175403 15 316 6.4 12.9 0.00 0.00 0.00 34 1017.8
20260503174858 15 243 8.0 20.9 0.00 0.00 0.00 32 1017.7
20260503174356 15 301 8.0 25.7 0.00 0.00 0.00 32 1017.7
20260503173851 15 282 4.8 17.7 0.00 0.00 0.00 35 1017.6
20260503173348 14 260 8.0 11.3 0.00 0.00 0.00 33 1017.9
20260503172844 14 29 9.7 16.1 0.00 0.00 0.00 33 1017.7
20260503172342 14 221 1.6 20.9 0.00 0.00 0.00 32 1018.1
20260503171838 15 345 16.1 20.9 0.00 0.00 0.00 35 1017.9
20260503171335 14 256 11.3 20.9 0.00 0.00 0.00 35 1018.0
20260503170832 15 316 14.5 29.0 0.00 0.00 0.00 33 1017.9
20260503170328 15 163 0.0 11.3 0.00 0.00 0.00 37 1018.1
20260503150721 12 307 9.7 20.9 0.00 0.00 0.00 36 1019.1
20260503150217 12 275 14.5 25.7 0.00 0.00 0.00 36 1019.1
20260503140141 10 335 14.5 17.7 0.00 0.00 0.00 42 1019.3
20260503131111 10 307 9.7 17.7 0.00 0.00 0.00 47 1019.7
20260503130609 9 22 12.9 22.5 0.00 0.00 0.00 47 1019.4
20260503130106 9 318 12.9 16.1 0.00 0.00 0.00 49 1019.6
20260503110458 3 171 0.0 3.2 0.00 0.00 0.00 76 1018.6